Time,TemperatureF,DewpointF,PressureIn,WindDirection,WindDirectionDegrees,WindSpeedMPH,WindSpeedGustMPH,Humidity,HourlyPrecipIn,Conditions,Clouds,dailyrainin,SoftwareType,DateUTC
2013-06-17 00:02:00,72.0,66.0,29.93,NNW,332,0.0,0.0,81,0.00,,,0.03,,2013-06-17 04:02:00,
2013-06-17 00:12:00,71.0,65.0,29.93,NNW,332,0.0,0.0,81,0.00,,,0.03,,2013-06-17 04:12:00,
2013-06-17 00:22:00,71.0,65.0,29.93,NNW,332,0.0,0.0,80,0.00,,,0.03,,2013-06-17 04:22:00,
2013-06-17 00:34:00,71.0,65.0,29.92,NNW,332,0.0,0.0,80,0.00,,,0.03,,2013-06-17 04:34:00,
2013-06-17 00:43:00,71.0,64.0,29.92,NNW,332,0.0,0.0,79,0.00,,,0.03,,2013-06-17 04:43:00,
2013-06-17 00:53:00,71.0,65.0,29.92,NNW,332,0.0,0.0,80,0.00,,,0.03,,2013-06-17 04:53:00,
2013-06-17 01:02:00,70.0,64.0,29.92,NNW,332,0.0,0.0,81,0.00,,,0.03,,2013-06-17 05:02:00,
2013-06-17 01:12:00,70.0,64.0,29.93,NNW,332,0.0,0.0,81,0.00,,,0.03,,2013-06-17 05:12:00,
2013-06-17 01:22:00,70.0,64.0,29.93,NNW,332,0.0,0.0,82,0.00,,,0.03,,2013-06-17 05:22:00,
2013-06-17 01:33:00,70.0,64.0,29.93,NNW,332,0.0,0.0,82,0.00,,,0.03,,2013-06-17 05:33:00,
2013-06-17 01:44:00,70.0,65.0,29.93,NNW,332,0.0,0.0,83,0.00,,,0.03,,2013-06-17 05:44:00,
2013-06-17 01:53:00,70.0,65.0,29.93,NNW,332,0.0,0.0,83,0.00,,,0.03,,2013-06-17 05:53:00,
2013-06-17 02:02:00,69.0,64.0,29.93,NNW,332,0.0,0.0,83,0.00,,,0.03,,2013-06-17 06:02:00,
2013-06-17 02:12:00,69.0,64.0,29.93,NNW,332,0.0,0.0,84,0.00,,,0.03,,2013-06-17 06:12:00,
2013-06-17 02:22:00,69.0,64.0,29.93,NNW,332,0.0,0.0,83,0.00,,,0.03,,2013-06-17 06:22:00,
2013-06-17 02:33:00,69.0,64.0,29.93,NNW,332,0.0,0.0,85,0.00,,,0.03,,2013-06-17 06:33:00,
2013-06-17 02:43:00,69.0,64.0,29.93,NNW,332,0.0,0.0,85,0.00,,,0.03,,2013-06-17 06:43:00,
2013-06-17 02:53:00,69.0,65.0,29.93,NNW,332,0.0,0.0,87,0.00,,,0.03,,2013-06-17 06:53:00,
2013-06-17 03:02:00,69.0,65.0,29.92,NNW,332,0.0,0.0,87,0.00,,,0.03,,2013-06-17 07:02:00,
2013-06-17 03:12:00,69.0,65.0,29.93,NNW,332,0.0,0.0,87,0.00,,,0.03,,2013-06-17 07:12:00,
2013-06-17 03:22:00,69.0,65.0,29.93,NNW,332,0.0,0.0,88,0.00,,,0.03,,2013-06-17 07:22:00,
2013-06-17 03:33:00,69.0,65.0,29.93,NNW,332,0.0,0.0,88,0.00,,,0.03,,2013-06-17 07:33:00,
2013-06-17 03:43:00,68.0,65.0,29.93,NNW,332,0.0,0.0,89,0.00,,,0.03,,2013-06-17 07:43:00,
2013-06-17 03:53:00,68.0,65.0,29.94,NNW,332,0.0,0.0,89,0.00,,,0.03,,2013-06-17 07:53:00,
2013-06-17 04:02:00,68.0,65.0,29.93,NNW,332,0.0,0.0,90,0.00,,,0.03,,2013-06-17 08:02:00,
2013-06-17 04:12:00,68.0,65.0,29.93,NNW,332,0.0,0.0,90,0.00,,,0.03,,2013-06-17 08:12:00,
2013-06-17 04:22:00,68.0,65.0,29.93,NNW,332,0.0,0.0,90,0.00,,,0.03,,2013-06-17 08:22:00,
2013-06-17 04:34:00,68.0,65.0,29.93,NNW,332,0.0,0.0,91,0.00,,,0.03,,2013-06-17 08:34:00,
2013-06-17 04:43:00,68.0,65.0,29.93,NNW,332,0.0,0.0,91,0.00,,,0.03,,2013-06-17 08:43:00,
2013-06-17 04:53:00,68.0,66.0,29.94,NNW,332,0.0,0.0,92,0.00,,,0.03,,2013-06-17 08:53:00,
2013-06-17 05:02:00,68.0,66.0,29.94,NNW,332,0.0,0.0,92,0.00,,,0.03,,2013-06-17 09:02:00,
2013-06-17 05:12:00,68.0,66.0,29.94,NNW,332,0.0,0.0,92,0.00,,,0.03,,2013-06-17 09:12:00,
2013-06-17 05:22:00,67.0,65.0,29.94,NNW,332,0.0,0.0,93,0.00,,,0.03,,2013-06-17 09:22:00,
2013-06-17 05:34:00,67.0,65.0,29.94,NNW,332,0.0,0.0,93,0.00,,,0.03,,2013-06-17 09:34:00,
2013-06-17 05:44:00,67.0,65.0,29.94,NNW,332,0.0,0.0,93,0.00,,,0.03,,2013-06-17 09:44:00,
2013-06-17 05:52:00,67.0,65.0,29.94,NNW,332,0.0,0.0,93,0.00,,,0.03,,2013-06-17 09:52:00,
2013-06-17 06:02:00,67.0,65.0,29.94,NNW,332,0.0,0.0,94,0.00,,,0.03,,2013-06-17 10:02:00,
2013-06-17 06:12:00,67.0,65.0,29.95,NNW,332,0.0,0.0,94,0.00,,,0.03,,2013-06-17 10:12:00,
2013-06-17 06:22:00,67.0,65.0,29.95,NNW,332,0.0,0.0,94,0.00,,,0.03,,2013-06-17 10:22:00,
2013-06-17 06:33:00,67.0,65.0,29.95,NNW,332,0.0,0.0,94,0.00,,,0.03,,2013-06-17 10:33:00,
2013-06-17 06:43:00,67.0,66.0,29.95,NNW,332,0.0,0.0,95,0.00,,,0.03,,2013-06-17 10:43:00,
2013-06-17 06:53:00,67.0,66.0,29.94,NNW,332,0.0,0.0,95,0.00,,,0.03,,2013-06-17 10:53:00,
2013-06-17 07:02:00,67.0,66.0,29.95,NNW,332,0.0,0.0,95,0.00,,,0.03,,2013-06-17 11:02:00,
2013-06-17 07:12:00,68.0,67.0,29.95,NNW,332,0.0,1.0,95,0.03,,,0.06,,2013-06-17 11:12:00,
2013-06-17 07:23:00,68.0,67.0,29.96,NNW,332,0.0,0.0,95,0.03,,,0.06,,2013-06-17 11:23:00,
2013-06-17 07:33:00,68.0,67.0,29.95,NNW,332,0.0,0.0,95,0.03,,,0.06,,2013-06-17 11:33:00,
2013-06-17 07:43:00,69.0,68.0,29.96,NNW,332,0.0,0.0,95,0.03,,,0.06,,2013-06-17 11:43:00,
2013-06-17 07:53:00,69.0,67.0,29.96,NNW,332,0.0,0.0,94,0.03,,,0.06,,2013-06-17 11:53:00,
2013-06-17 08:02:00,70.0,68.0,29.96,NNW,332,0.0,0.0,93,0.03,,,0.03,,2013-06-17 12:02:00,
2013-06-17 08:12:00,70.0,68.0,29.96,NNW,332,0.0,0.0,93,0.03,,,0.03,,2013-06-17 12:12:00,
2013-06-17 08:23:00,71.0,69.0,29.96,NNW,332,0.0,0.0,93,0.00,,,0.03,,2013-06-17 12:23:00,
2013-06-17 08:33:00,72.0,69.0,29.96,NNW,332,0.0,0.0,91,0.00,,,0.03,,2013-06-17 12:33:00,
2013-06-17 08:43:00,73.0,70.0,29.97,NNW,332,0.0,0.0,90,0.00,,,0.03,,2013-06-17 12:43:00,
2013-06-17 08:53:00,74.0,71.0,29.96,NNW,332,0.0,0.0,89,0.00,,,0.03,,2013-06-17 12:53:00,
2013-06-17 09:02:00,75.0,70.0,29.96,NNW,332,0.0,0.0,84,0.00,,,0.03,,2013-06-17 13:02:00,
2013-06-17 09:12:00,76.0,70.0,29.96,NNW,332,0.0,0.0,82,0.00,,,0.03,,2013-06-17 13:12:00,
2013-06-17 09:22:00,76.0,69.0,29.96,NNW,332,0.0,0.0,79,0.00,,,0.03,,2013-06-17 13:22:00,
2013-06-17 09:32:00,76.0,69.0,29.96,NNW,332,0.0,0.0,80,0.00,,,0.03,,2013-06-17 13:32:00,
2013-06-17 09:43:00,77.0,70.0,29.96,NNW,332,0.0,0.0,80,0.00,,,0.03,,2013-06-17 13:43:00,
2013-06-17 09:52:00,77.0,70.0,29.96,NNW,332,0.0,0.0,79,0.00,,,0.03,,2013-06-17 13:52:00,
2013-06-17 10:02:00,77.0,71.0,29.96,NNW,332,0.0,0.0,82,0.00,,,0.03,,2013-06-17 14:02:00,
2013-06-17 10:12:00,77.0,68.0,29.96,NNW,330,0.0,1.0,75,0.00,,,0.03,,2013-06-17 14:12:00,
2013-06-17 10:22:00,79.0,70.0,29.96,NNW,338,0.0,1.0,75,0.00,,,0.03,,2013-06-17 14:22:00,
2013-06-17 10:34:00,79.0,70.0,29.95,SE,125,0.0,3.0,75,0.00,,,0.03,,2013-06-17 14:34:00,
2013-06-17 10:43:00,80.0,70.0,29.95,NW,318,0.0,2.0,71,0.00,,,0.03,,2013-06-17 14:43:00,
2013-06-17 10:53:00,80.0,70.0,29.94,NW,319,0.0,1.0,72,0.00,,,0.03,,2013-06-17 14:53:00,
2013-06-17 11:02:00,81.0,71.0,29.94,WNW,296,0.0,0.0,71,0.00,,,0.03,,2013-06-17 15:02:00,
2013-06-17 11:12:00,81.0,70.0,29.94,NNW,336,0.0,1.0,69,0.00,,,0.03,,2013-06-17 15:12:00,
2013-06-17 11:22:00,81.0,71.0,29.94,NW,315,0.0,0.0,72,0.00,,,0.03,,2013-06-17 15:22:00,
2013-06-17 11:33:00,82.0,71.0,29.93,NW,316,0.0,1.0,69,0.00,,,0.03,,2013-06-17 15:33:00,
2013-06-17 11:43:00,81.0,70.0,29.94,WNW,287,0.0,0.0,69,0.00,,,0.03,,2013-06-17 15:43:00,
2013-06-17 11:52:00,80.0,70.0,29.94,WNW,287,0.0,0.0,72,0.00,,,0.03,,2013-06-17 15:52:00,
2013-06-17 12:02:00,79.0,70.0,29.94,WNW,287,0.0,0.0,73,0.00,,,0.03,,2013-06-17 16:02:00,
2013-06-17 12:12:00,79.0,70.0,29.94,WNW,287,0.0,0.0,75,0.00,,,0.03,,2013-06-17 16:12:00,
2013-06-17 12:22:00,83.0,70.0,29.94,SW,234,0.0,2.0,66,0.00,,,0.03,,2013-06-17 16:22:00,
2013-06-17 12:33:00,83.0,70.0,29.94,SW,236,0.0,2.0,66,0.00,,,0.03,,2013-06-17 16:33:00,
2013-06-17 12:43:00,84.0,70.0,29.94,SSW,205,0.0,1.0,64,0.00,,,0.03,,2013-06-17 16:43:00,
2013-06-17 12:53:00,84.0,70.0,29.94,SSW,205,0.0,2.0,63,0.00,,,0.03,,2013-06-17 16:53:00,
2013-06-17 13:02:00,84.0,70.0,29.94,SSW,205,0.0,2.0,63,0.00,,,0.03,,2013-06-17 17:02:00,
2013-06-17 13:12:00,84.0,70.0,29.94,NNW,340,0.0,2.0,64,0.00,,,0.03,,2013-06-17 17:12:00,
2013-06-17 13:22:00,82.0,71.0,29.94,NW,315,0.0,1.0,69,0.00,,,0.03,,2013-06-17 17:22:00,
2013-06-17 13:33:00,82.0,72.0,29.94,NW,309,0.0,1.0,71,0.00,,,0.03,,2013-06-17 17:33:00,
2013-06-17 13:43:00,84.0,73.0,29.93,WNW,298,0.0,0.0,69,0.00,,,0.03,,2013-06-17 17:43:00,
2013-06-17 13:52:00,84.0,71.0,29.93,West,272,0.0,1.0,65,0.00,,,0.03,,2013-06-17 17:52:00,
2013-06-17 14:02:00,85.0,72.0,29.93,NNW,342,0.0,1.0,66,0.00,,,0.03,,2013-06-17 18:02:00,
2013-06-17 14:12:00,87.0,72.0,29.93,NE,55,0.0,2.0,61,0.00,,,0.03,,2013-06-17 18:12:00,
2013-06-17 14:23:00,86.0,73.0,29.93,NW,325,0.0,3.0,65,0.00,,,0.03,,2013-06-17 18:23:00,
2013-06-17 14:43:00,83.0,70.0,29.92,WNW,302,0.0,0.0,66,0.00,,,0.03,,2013-06-17 18:43:00,
2013-06-17 14:53:00,86.0,72.0,29.92,SE,130,0.0,1.0,64,0.00,,,0.03,,2013-06-17 18:53:00,
2013-06-17 15:02:00,86.0,72.0,29.92,ESE,108,0.0,3.0,63,0.00,,,0.03,,2013-06-17 19:02:00,
2013-06-17 15:12:00,86.0,71.0,29.91,SSE,167,0.0,1.0,62,0.00,,,0.03,,2013-06-17 19:12:00,
2013-06-17 15:22:00,86.0,72.0,29.91,SW,232,0.0,2.0,63,0.00,,,0.03,,2013-06-17 19:22:00,
2013-06-17 15:33:00,86.0,70.0,29.91,WSW,254,0.0,1.0,60,0.00,,,0.03,,2013-06-17 19:33:00,
2013-06-17 15:43:00,86.0,70.0,29.91,WNW,287,0.0,2.0,59,0.00,,,0.03,,2013-06-17 19:43:00,
2013-06-17 16:02:00,87.0,71.0,29.90,NW,326,0.0,1.0,59,0.00,,,0.03,,2013-06-17 20:02:00,
2013-06-17 16:11:00,87.0,71.0,29.90,NNW,329,0.0,1.0,60,0.00,,,0.03,,2013-06-17 20:11:00,
2013-06-17 16:22:00,86.0,70.0,29.89,South,178,0.0,2.0,59,0.00,,,0.03,,2013-06-17 20:22:00,
2013-06-17 16:34:00,85.0,70.0,29.89,NNW,329,0.0,2.0,61,0.00,,,0.03,,2013-06-17 20:34:00,
2013-06-17 16:43:00,85.0,71.0,29.88,NNW,329,0.0,0.0,63,0.00,,,0.03,,2013-06-17 20:43:00,
2013-06-17 16:52:00,85.0,71.0,29.88,NNW,329,0.0,0.0,63,0.00,,,0.03,,2013-06-17 20:52:00,
2013-06-17 17:02:00,84.0,71.0,29.89,NNW,329,0.0,0.0,66,0.00,,,0.03,,2013-06-17 21:02:00,
2013-06-17 17:12:00,81.0,72.0,29.88,NNW,329,0.0,0.0,73,0.00,,,0.03,,2013-06-17 21:12:00,
2013-06-17 17:22:00,81.0,73.0,29.89,NNW,329,0.0,0.0,76,0.00,,,0.03,,2013-06-17 21:22:00,
2013-06-17 17:33:00,81.0,72.0,29.88,NNW,329,0.0,0.0,74,0.00,,,0.03,,2013-06-17 21:33:00,
2013-06-17 17:43:00,83.0,71.0,29.88,NNW,329,0.0,0.0,67,0.00,,,0.03,,2013-06-17 21:43:00,
2013-06-17 17:52:00,83.0,71.0,29.88,NNW,329,0.0,0.0,67,0.00,,,0.03,,2013-06-17 21:52:00,
2013-06-17 18:01:00,84.0,72.0,29.89,NNW,329,0.0,0.0,68,0.00,,,0.03,,2013-06-17 22:01:00,
2013-06-17 18:11:00,84.0,72.0,29.89,NNW,329,0.0,1.0,68,0.00,,,0.03,,2013-06-17 22:11:00,
2013-06-17 18:22:00,85.0,73.0,29.89,NNW,329,0.0,1.0,67,0.00,,,0.03,,2013-06-17 22:22:00,
2013-06-17 18:34:00,84.0,72.0,29.89,NNW,329,0.0,0.0,68,0.00,,,0.03,,2013-06-17 22:34:00,
2013-06-17 18:43:00,84.0,70.0,29.89,NW,325,0.0,1.0,64,0.00,,,0.03,,2013-06-17 22:43:00,
2013-06-17 18:53:00,84.0,72.0,29.88,NW,326,0.0,2.0,68,0.00,,,0.03,,2013-06-17 22:53:00,
2013-06-17 19:02:00,84.0,72.0,29.88,NNW,332,0.0,0.0,68,0.00,,,0.03,,2013-06-17 23:02:00,
2013-06-17 19:11:00,84.0,72.0,29.89,NW,319,0.0,1.0,68,0.00,,,0.03,,2013-06-17 23:11:00,
2013-06-17 19:22:00,83.0,72.0,29.89,ESE,109,0.0,1.0,69,0.00,,,0.03,,2013-06-17 23:22:00,
2013-06-17 19:33:00,83.0,73.0,29.89,SE,128,0.0,1.0,71,0.00,,,0.03,,2013-06-17 23:33:00,
2013-06-17 19:43:00,82.0,72.0,29.89,SE,127,0.0,0.0,72,0.00,,,0.03,,2013-06-17 23:43:00,
2013-06-17 19:53:00,82.0,72.0,29.88,SE,128,0.0,0.0,72,0.00,,,0.03,,2013-06-17 23:53:00,
2013-06-17 20:01:00,82.0,72.0,29.89,SSE,151,0.0,1.0,71,0.00,,,0.03,,2013-06-18 00:01:00,
2013-06-17 20:12:00,82.0,72.0,29.89,SE,145,0.0,1.0,73,0.00,,,0.03,,2013-06-18 00:12:00,
2013-06-17 20:22:00,81.0,72.0,29.89,NNW,338,0.0,1.0,74,0.00,,,0.03,,2013-06-18 00:22:00,
2013-06-17 20:33:00,81.0,73.0,29.89,SE,126,0.0,2.0,76,0.00,,,0.03,,2013-06-18 00:33:00,
2013-06-17 20:43:00,80.0,72.0,29.90,ESE,109,0.0,1.0,77,0.00,,,0.03,,2013-06-18 00:43:00,
2013-06-17 20:52:00,80.0,72.0,29.90,East,88,0.0,1.0,77,0.00,,,0.03,,2013-06-18 00:52:00,
2013-06-17 21:01:00,80.0,72.0,29.90,East,88,0.0,0.0,78,0.00,,,0.03,,2013-06-18 01:01:00,
2013-06-17 21:12:00,79.0,72.0,29.91,East,88,0.0,0.0,80,0.00,,,0.03,,2013-06-18 01:12:00,
2013-06-17 21:23:00,78.0,72.0,29.91,East,88,0.0,0.0,82,0.00,,,0.03,,2013-06-18 01:23:00,
2013-06-17 21:34:00,78.0,72.0,29.91,East,88,0.0,0.0,81,0.00,,,0.03,,2013-06-18 01:34:00,
2013-06-17 21:44:00,79.0,72.0,29.91,ESE,119,0.0,1.0,80,0.00,,,0.03,,2013-06-18 01:44:00,
2013-06-17 21:53:00,78.0,72.0,29.91,SE,128,0.0,0.0,81,0.00,,,0.03,,2013-06-18 01:53:00,
2013-06-17 22:02:00,78.0,72.0,29.91,SE,127,0.0,0.0,82,0.00,,,0.03,,2013-06-18 02:02:00,
2013-06-17 22:12:00,77.0,71.0,29.92,SE,128,0.0,0.0,83,0.00,,,0.03,,2013-06-18 02:12:00,
2013-06-17 22:22:00,77.0,72.0,29.92,SE,128,0.0,0.0,84,0.00,,,0.03,,2013-06-18 02:22:00,
2013-06-17 22:34:00,77.0,72.0,29.92,ESE,103,0.0,1.0,84,0.00,,,0.03,,2013-06-18 02:34:00,
2013-06-17 22:43:00,77.0,72.0,29.93,ESE,103,0.0,0.0,84,0.00,,,0.03,,2013-06-18 02:43:00,
2013-06-17 22:53:00,77.0,72.0,29.93,ESE,103,0.0,0.0,84,0.00,,,0.03,,2013-06-18 02:53:00,
2013-06-17 23:02:00,78.0,73.0,29.93,ESE,103,0.0,0.0,84,0.00,,,0.03,,2013-06-18 03:02:00,
2013-06-17 23:12:00,76.0,72.0,29.93,ESE,103,0.0,0.0,87,0.00,,,0.03,,2013-06-18 03:12:00,
2013-06-17 23:23:00,76.0,72.0,29.93,ESE,103,0.0,0.0,88,0.00,,,0.03,,2013-06-18 03:23:00,
2013-06-17 23:34:00,75.0,72.0,29.93,ESE,103,0.0,0.0,89,0.00,,,0.03,,2013-06-18 03:34:00,
2013-06-17 23:43:00,75.0,72.0,29.92,ESE,103,0.0,0.0,89,0.00,,,0.03,,2013-06-18 03:43:00,
2013-06-17 23:53:00,75.0,71.0,29.92,WSW,256,0.0,0.0,86,0.00,,,0.03,,2013-06-18 03:53:00,